Regional Weather Roundup
Issued by NWS

Home | Current Version | Previous Version | Text Only | Print | Product List | Glossary Off
Versions: 1 2 3 4 5 6 7 8 9 10 11 12 13 14 15 16 17 18 19 20 21 22 23 24 25 26 27 28 29 30 31 32 33 34 35 36 37 38 39 40 41 42 43 44 45 46 47 48 49 50

000
ASUS43 KLSX 201657
RWRMO

WEATHER SUMMARY FOR MISSOURI
NATIONAL WEATHER SERVICE SPRINGFIELD MO
1100 AM CST MON NOV 20 2017

NOTE: "FAIR" INDICATES FEW OR NO CLOUDS BELOW 12,000 FEET WITH NO
       SIGNIFICANT WEATHER AND/OR OBSTRUCTIONS TO VISIBILITY.
       CURRENT SKY AND/OR WEATHER CONDITIONS ARE NOT AVAILABLE FOR
       CHILLICOTHE AND FARMINGTON.

MOZ001>031-035>038-043-044-053-054-201800-
...NORTHERN AND WESTERN MISSOURI...

CITY           SKY/WX    TMP DP  RH WIND       PRES   REMARKS
KANSAS CTY INT MOSUNNY   56  28  34 SW22G38   29.86F
LEE`S SUMMIT     N/A     56  29  35 SW28G36   29.90F
ST JOSEPH      SUNNY     58  26  29 S20G30    29.83F
CHILLICOTHE      N/A     54  32  43 S16G25    29.88F

$$
MOZ066>068-077>081-088>096-101>105-201800-
...SOUTHWEST MISSOURI...

CITY           SKY/WX    TMP DP  RH WIND       PRES   REMARKS
SPRINGFIELD    SUNNY     54  31  41 S20       30.05F
JOPLIN         SUNNY     56  30  37 S23G35    30.03F
BRANSON        MOSUNNY   55  27  33 S9        30.11F

$$
MOZ032>034-039>042-045>050-055>058-069>072-201800-
...CENTRAL MISSOURI...

CITY           SKY/WX    TMP DP  RH WIND       PRES   REMARKS
COLUMBIA       NOT AVBL
JEFFERSON CITY SUNNY     54  29  38 S16       30.01F
ROLLA          SUNNY     54  28  36 S20G29    30.04F
SEDALIA        SUNNY     56  32  40 SW24G37   29.97F
WARRENSBURG    SUNNY     55  32  41 S20G26    29.94F

$$
MOZ051-052-059>065-201800-
...EAST CENTRAL MISSOURI...

CITY           SKY/WX    TMP DP  RH WIND       PRES   REMARKS
ST LOUIS INTL  MOSUNNY   56  26  31 SW13      30.05F

$$
MOZ072>076-082>087-097>100-106>115-201800-
...SOUTH CENTRAL AND SOUTHEAST MISSOURI...

CITY           SKY/WX    TMP DP  RH WIND       PRES   REMARKS
CAPE GIRARDEAU SUNNY     46  30  53 S13       30.19F
POPLAR BLUFF   SUNNY     48  31  51 SW12      30.20F
WEST PLAINS    SUNNY     52  24  33 S13G18    30.13F

$$



USA.gov is the U.S. government's official web portal to all federal, state and local government web resources and services.